Temperature
20 20 20 20 20 20 20 20 20 20 20 20 20 20 19 19 19 19 19 19 19 19 18 18 18 18 18 18 18 18 18 18 18 18 17 17 17 17 17 17 17 17 17
20 20 20 20 20 20 20 20 20 20 20 19 19 19 19 19 19 19 19 19 19 18 18 18 18 18 18 18 18 18 18 18 18 17 17 17 17 17 17 17 17 17 17
21 20 20 20 20 20 20 20 20 20 19 19 19 19 19 19 19 19 19 19 19 18 18 18 18 18 18 18 18 17 17 17 17 17 17 17 17 17 17 17 17 17 17
21 20 20 20 20 20 20 20 19 19 19 19 19 19 19 19 19 18 18 18 18 18 18 18 18 18 18 18 17 17 17 17 17 17 17 17 17 17 17 17 17 17 17
21 20 20 20 20 20 20 19 19 19 19 19 19 19 19 19 18 18 18 18 18 18 18 18 18 18 18 17 17 17 17 17 17 17 17 17 17 17 17 17 17 17 17
21 20 20 20 20 20 20 19 19 19 19 19 19 19 19 18 18 18 18 18 18 18 18 18 18 18 17 17 17 17 17 17 17 17 17 17 17 17 17 17 17 17 17
21 20 20 20 20 20 20 19 19 19 19 19 18 18 19 18 18 18 18 18 18 18 18 18 18 18 17 17 17 17 17 17 17 17 17 17 17 17 17 17 17 17 17
21 21 20 20 20 20 20 19 19 19 19 19 19 19 18 18 18 18 18 18 18 18 18 18 18 18 17 17 17 17 17 17 17 18 18 17 17 17 17 17 17 17 16
21 21 20 20 20 20 20 20 19 19 19 19 19 19 18 18 18 18 18 18 18 18 18 18 18 18 17 17 17 17 17 17 18 18 18 18 17 17 17 17 17 17 16
21 21 21 20 20 20 20 19 19 19 19 19 18 18 18 18 18 18 18 18 18 18 18 18 18 18 17 17 17 17 17 17 18 18 18 18 17 17 17 17 17 17 16
21 21 21 20 20 20 20 19 19 19 19 19 18 18 18 18 18 18 18 18 18 18 18 18 18 18 17 17 17 17 17 18 18 18 18 18 17 17 17 17 17 17 17
20 21 21 21 20 20 20 19 19 19 19 19 18 18 18 18 18 18 18 18 18 18 18 18 18 18 18 17 17 17 17 18 18 18 18 18 18 17 17 17 17 17 17
21 21 20 20 20 20 20 20 19 19 19 19 18 18 18 18 18 18 18 18 18 18 18 18 18 18 18 17 17 17 17 18 17 18 18 18 18 18 17 17 17 17 17
21 21 21 20 20 20 20 20 19 19 19 19 18 18 18 18 18 18 18 18 18 18 18 18 18 18 18 18 18 18 17 18 17 18 18 18 18 18 17 17 17 17 17
21 21 21 20 20 20 20 20 19 19 19 19 18 18 18 18 18 18 18 18 18 18 18 18 18 18 18 18 18 18 18 18 17 18 18 18 18 17 17 17 17 17 17
21 21 20 20 20 20 19 19 19 19 19 19 18 18 18 18 18 18 18 18 18 18 18 18 18 18 18 18 18 17 17 17 17 17 18 17 17 17 17 17 17 17 17
21 21 20 20 20 20 19 19 19 19 19 19 19 18 18 18 18 18 18 18 18 18 18 18 18 18 18 18 18 17 17 17 17 17 17 17 17 17 17 17 17 17 17
21 21 20 20 20 19 19 19 19 19 19 19 19 18 18 18 18 18 18 18 18 18 18 18 18 18 18 18 18 17 17 17 17 17 17 17 17 17 17 17 17 17 17
22 21 20 20 20 20 19 19 19 19 19 19 18 18 18 18 18 18 18 18 18 18 18 18 18 18 18 18 17 17 17 17 17 17 17 17 17 17 17 17 17 17 17
22 21 20 20 20 20 19 19 19 19 18 18 18 18 18 18 18 18 18 18 18 18 18 18 18 18 17 18 17 17 17 17 17 17 17 17 17 17 17 17 17 17 17
21 21 21 20 20 20 19 19 19 19 19 18 18 18 18 18 18 18 18 18 18 18 18 18 18 18 17 17 17 17 17 17 17 17 17 17 17 17 17 17 17 17 17
21 21 21 20 20 20 20 19 19 19 19 18 18 18 18 18 18 18 18 18 18 18 18 18 17 17 17 17 17 17 17 17 17 17 17 17 17 17 17 17 17 17 17
21 21 20 20 20 20 19 19 19 18 18 18 18 18 18 18 18 18 18 18 18 18 18 18 18 17 17 17 17 17 17 18 18 18 18 17 17 17 17 17 17 17 17
21 21 20 20 20 19 19 19 19 19 19 19 19 18 18 18 18 18 18 18 18 18 18 18 18 17 18 18 17 17 18 18 18 18 18 18 18 17 17 17 17 17 17
21 21 20 20 19 19 19 19 18 19 19 19 18 18 18 18 18 18 18 18 18 18 18 18 17 17 18 18 18 18 18 18 18 18 18 18 18 18 18 18 17 17 17
21 20 20 19 19 19 19 18 18 18 18 18 18 18 18 18 18 18 18 18 18 18 18 18 17 17 17 18 18 18 18 18 18 18 18 18 18 18 18 18 18 17 17
Wind_Speed
8 12 19 19 19 19 19 19 19 19 19 20 20 20 20 20 19 19 19 19 18 19 19 19 20 20 20 21 21 21 21 21 21 21 20 20 20 20 20 20 19 18 20
12 16 20 20 19 19 19 19 18 18 18 18 18 18 19 19 18 18 18 18 18 18 18 19 19 19 20 20 20 20 20 20 20 20 20 19 19 19 19 19 18 17 19
15 17 20 20 20 19 19 18 18 18 17 17 17 17 17 18 18 17 18 18 18 18 18 18 18 18 18 19 19 19 19 19 20 20 19 17 18 19 18 19 19 18 18
16 17 19 21 20 20 19 18 18 17 17 16 16 16 17 17 17 17 17 17 17 17 17 16 17 17 17 17 17 17 17 18 18 18 15 15 16 17 18 18 18 18 17
14 17 20 21 20 20 19 18 17 17 16 16 16 16 16 16 16 17 17 16 16 16 16 15 15 15 15 15 14 14 14 16 17 16 15 15 15 17 17 17 17 17 17
12 16 20 21 20 20 19 18 17 16 16 16 16 15 15 16 16 16 16 16 16 15 15 14 14 13 13 13 12 12 14 17 17 16 15 15 14 16 16 17 16 17 16
12 14 19 21 20 20 19 18 17 16 16 16 15 15 15 15 15 16 15 15 15 14 14 13 12 12 11 11 11 11 14 17 16 15 14 14 15 16 16 16 16 16 16
14 13 17 20 20 19 19 18 17 16 16 16 15 15 15 15 15 15 15 15 14 14 12 11 11 10 10 9 10 11 16 18 16 15 13 14 15 16 16 16 15 15 15
13 12 13 16 18 19 18 18 17 17 16 15 15 15 15 15 15 15 14 14 13 13 11 10 9 9 8 8 9 10 14 17 16 14 14 13 15 15 15 15 15 15 14
11 10 9 12 14 15 16 17 17 16 16 15 15 15 15 15 14 14 13 13 13 12 10 9 8 7 6 6 7 10 15 16 14 13 13 13 15 15 15 14 14 14 13
11 9 8 9 11 13 13 15 16 16 15 15 14 15 14 12 13 13 12 12 12 11 10 8 7 5 4 4 5 9 13 13 13 12 12 14 14 14 14 14 13 13 13
13 11 10 9 10 12 12 13 12 12 13 12 12 13 12 11 11 11 12 11 11 10 9 7 6 4 3 2 4 8 10 13 12 11 12 15 14 14 13 13 13 12 12
15 14 12 11 11 10 8 11 9 9 11 11 12 12 11 10 9 9 9 9 9 8 6 5 4 3 3 2 2 7 10 12 11 11 13 15 14 14 13 13 12 12 12
16 15 14 13 11 10 10 9 9 8 8 9 11 13 11 7 6 7 6 7 7 6 5 5 4 4 3 3 4 7 10 11 12 12 14 15 14 13 13 13 12 12 11
13 14 14 13 13 10 9 7 9 7 8 10 11 13 13 8 6 6 6 7 7 7 6 5 5 4 3 3 5 8 8 12 13 13 13 15 15 14 13 13 12 12 11
14 14 12 12 12 10 8 6 7 9 10 10 11 13 14 12 9 7 5 6 6 8 8 7 5 4 3 3 5 8 10 13 13 13 13 14 15 14 13 13 13 12 12
14 14 13 12 11 11 10 9 8 10 11 9 10 13 14 14 12 8 5 5 6 8 7 5 3 3 3 3 4 6 9 11 12 12 13 13 13 14 14 13 13 13 12
14 14 13 13 12 11 9 8 7 9 10 9 11 12 13 14 14 9 5 5 7 6 5 3 3 3 2 3 3 3 5 8 10 12 12 13 13 12 14 14 14 13 13
14 14 12 11 11 10 8 6 7 7 7 9 11 10 11 12 13 10 6 5 7 5 3 4 3 3 3 3 3 3 3 4 6 10 10 13 14 14 14 15 15 15 14
12 12 11 10 10 8 6 5 4 4 5 7 8 10 12 12 12 10 6 6 6 4 3 3 3 3 3 3 3 2 2 3 4 5 8 11 13 14 15 14 15 15 16
11 10 11 11 10 8 5 5 5 5 5 5 6 10 13 12 12 9 5 5 5 5 5 5 4 3 2 2 3 2 2 1 3 5 6 7 10 14 15 15 15 15 14
12 11 10 11 11 9 6 5 4 4 4 5 5 7 12 12 11 10 7 6 5 5 6 5 4 3 2 3 4 3 1 3 3 4 4 6 7 10 12 15 16 16 16
11 11 10 10 10 9 7 5 4 3 2 2 4 5 7 11 12 9 8 6 6 6 6 6 6 6 4 2 3 4 4 4 3 3 3 4 5 5 7 12 15 17 17
10 10 9 9 9 8 8 7 7 6 5 5 5 5 6 9 10 10 9 8 6 6 6 6 6 4 5 3 2 2 3 4 3 2 3 2 4 6 7 8 11 15 17
9 9 9 9 9 8 8 8 7 6 5 4 4 5 6 6 8 9 10 8 7 6 7 7 6 5 5 5 4 2 2 1 2 3 2 3 3 4 5 6 8 12 16
7 8 8 9 8 8 8 8 7 7 6 5 5 6 6 5 6 8 8 8 7 6 7 7 6 7 5 5 4 4 4 3 3 3 3 3 3 4 4 4 5 8 12
Wind_Direction
142 143 137 132 125 120 114 110 107 103 101 99 98 99 100 103 105 106 106 106 106 106 105 104 103 104 105 105 106 106 107 106 105 105 106 107 108 107 107 106 105 105 108
144 144 138 134 129 124 119 115 112 108 105 103 102 102 103 105 106 107 108 108 107 107 106 105 105 105 106 107 107 108 108 107 104 103 103 105 107 107 107 107 107 109 110
137 139 138 135 132 127 123 120 117 114 112 110 108 107 107 108 109 110 110 109 109 109 108 108 107 108 108 109 109 111 111 108 106 103 101 99 103 106 108 109 109 109 110
135 136 138 137 134 131 127 125 122 120 118 116 114 112 111 112 113 114 113 112 112 111 111 110 111 111 110 110 110 112 114 112 109 105 101 101 105 108 108 109 110 110 110
132 135 140 138 135 133 131 129 126 125 124 122 120 118 116 115 115 116 116 115 114 113 113 113 113 113 111 110 109 110 111 114 112 105 101 101 107 112 112 112 112 112 111
130 136 141 139 137 136 135 134 132 131 129 127 124 123 121 119 118 119 119 118 118 117 116 117 116 115 112 109 106 106 110 117 112 109 105 106 111 115 114 114 113 113 113
132 136 141 141 141 140 139 138 136 135 134 131 129 127 125 123 122 123 123 122 121 121 120 120 119 117 115 109 103 102 116 121 116 112 109 109 114 116 116 116 114 113 112
136 136 142 144 144 144 143 142 142 141 139 137 134 132 130 128 128 127 126 126 125 125 124 124 123 120 115 105 96 99 119 125 122 119 115 115 118 118 118 119 118 117 117
137 139 143 148 148 148 147 146 146 145 143 141 140 138 136 134 134 133 132 131 131 131 130 130 129 124 116 103 94 103 125 130 127 127 124 122 124 124 124 124 123 122 121
140 145 145 146 146 148 150 150 150 149 148 147 146 145 143 142 141 139 138 138 138 139 139 139 137 132 121 107 101 108 125 129 130 127 128 131 131 130 130 129 128 128 126
149 155 151 146 147 148 151 155 155 154 154 152 152 151 147 145 145 146 147 146 146 147 148 149 149 144 127 109 107 116 122 129 130 132 136 138 137 136 136 135 134 135 134
162 167 162 157 156 157 160 154 155 156 156 156 157 152 151 153 155 156 158 155 154 154 156 161 163 156 134 100 101 116 126 136 137 141 146 147 144 143 142 141 140 139 139
169 170 167 166 165 167 155 157 159 159 161 164 165 162 159 161 163 159 161 161 161 162 164 170 173 180 180 174 140 134 138 144 148 150 156 155 152 150 150 149 146 145 146
172 174 171 172 171 171 161 166 167 167 173 174 176 172 165 161 160 163 166 172 173 174 178 184 202 212 219 219 183 152 151 155 153 153 162 161 159 158 158 158 156 154 154
173 174 175 174 174 169 163 172 173 176 182 182 179 180 174 167 166 169 173 181 187 187 190 192 201 220 233 221 171 149 151 155 156 160 167 168 167 167 167 168 166 164 163
172 175 175 174 173 166 170 179 177 177 183 183 182 184 180 174 170 169 173 181 188 192 193 191 191 190 191 160 147 146 149 154 159 165 169 174 176 176 177 176 175 175 176
169 169 170 170 168 169 173 179 178 177 180 184 188 186 179 173 171 171 172 178 188 193 189 178 173 160 153 143 141 146 149 157 164 171 174 178 182 186 187 186 184 185 186
162 164 170 171 170 171 169 172 172 173 175 180 185 183 177 175 173 170 169 177 180 176 164 155 147 134 127 130 142 157 154 159 170 177 180 184 187 192 196 196 194 193 195
162 163 168 165 170 172 167 165 165 164 172 177 180 178 179 177 175 170 171 174 165 153 153 164 140 141 145 147 158 161 165 165 173 182 186 192 195 198 200 203 202 201 204
163 164 167 166 169 167 158 145 145 150 168 174 177 180 179 180 175 167 170 173 161 147 153 149 143 146 154 160 150 141 180 187 185 188 194 198 201 204 205 205 206 209 214
162 164 167 167 169 165 162 160 159 170 172 177 183 183 181 180 175 169 172 170 164 165 170 162 150 150 148 125 92 45 349 299 220 205 204 200 204 205 206 208 208 211 217
168 174 173 173 173 173 173 167 162 158 173 179 184 183 183 181 178 179 172 176 173 169 171 166 151 148 157 146 135 113 9 332 306 235 211 204 205 203 203 209 210 212 216
173 176 179 178 175 173 165 147 134 118 122 161 185 191 192 185 185 183 180 176 178 174 178 180 165 156 168 187 159 148 158 218 268 297 250 220 204 201 206 208 211 215 217
180 174 171 172 171 170 164 164 165 172 183 194 189 188 190 188 186 188 186 183 182 182 183 189 177 166 158 177 196 195 181 167 167 254 303 263 226 213 210 212 214 216 216
169 171 169 170 172 171 171 174 175 184 190 179 175 180 193 195 192 190 186 185 185 184 188 191 180 176 170 173 181 185 184 177 160 160 237 277 276 243 218 209 207 211 213
151 162 167 169 175 175 176 179 179 183 186 181 187 192 198 200 201 198 188 185 185 184 187 193 190 185 185 181 181 177 174 177 187 174 202 235 250 263 238 216 211 212 213
Height
1529 1531 1533 1534 1535 1536 1536 1537 1538 1539 1539 1540 1541 1542 1543 1543 1544 1545 1546 1546 1547 1548 1548 1549 1550 1550 1551 1552 1552 1553 1554 1555 1555 1556 1556 1557 1558 1558 1559 1560 1560 1561 1561
1528 1531 1533 1535 1536 1537 1538 1539 1540 1540 1541 1542 1543 1544 1545 1545 1546 1547 1548 1548 1549 1550 1550 1551 1552 1553 1553 1554 1555 1556 1557 1557 1558 1558 1559 1560 1560 1561 1562 1562 1562 1563 1564
1529 1532 1534 1536 1537 1538 1539 1540 1541 1542 1543 1544 1545 1546 1547 1547 1548 1549 1550 1550 1551 1552 1553 1553 1554 1555 1556 1557 1558 1558 1559 1560 1560 1561 1561 1562 1563 1563 1564 1564 1565 1566 1567
1530 1532 1535 1537 1538 1540 1541 1542 1543 1544 1545 1546 1547 1548 1549 1549 1550 1551 1552 1552 1553 1554 1555 1556 1556 1557 1558 1559 1560 1561 1562 1562 1563 1563 1564 1564 1565 1566 1566 1567 1567 1568 1569
1531 1533 1536 1537 1539 1541 1542 1543 1544 1545 1546 1548 1549 1549 1550 1551 1552 1553 1554 1554 1555 1556 1557 1558 1559 1560 1561 1562 1563 1563 1564 1565 1565 1566 1566 1566 1567 1568 1568 1569 1570 1571 1571
1532 1534 1536 1538 1540 1542 1543 1544 1546 1547 1548 1549 1550 1551 1552 1553 1554 1554 1555 1556 1557 1558 1559 1560 1561 1562 1563 1564 1565 1566 1566 1567 1568 1568 1568 1569 1569 1570 1571 1571 1572 1573 1574
1532 1535 1537 1539 1541 1542 1544 1545 1547 1548 1549 1550 1552 1553 1553 1554 1555 1556 1557 1558 1559 1560 1561 1563 1563 1565 1566 1566 1567 1568 1569 1569 1570 1570 1571 1571 1571 1572 1573 1574 1574 1575 1576
1533 1536 1538 1540 1542 1543 1544 1546 1547 1549 1550 1551 1553 1554 1555 1556 1557 1558 1559 1560 1561 1562 1563 1565 1566 1567 1568 1569 1570 1570 1570 1571 1572 1572 1573 1573 1574 1574 1575 1576 1577 1577 1578
1535 1536 1538 1540 1542 1543 1545 1546 1548 1549 1551 1552 1554 1555 1556 1557 1558 1560 1561 1562 1563 1564 1565 1566 1568 1569 1570 1571 1572 1572 1572 1573 1574 1574 1575 1575 1576 1576 1577 1578 1578 1579 1580
1535 1537 1539 1541 1542 1544 1545 1547 1548 1550 1551 1553 1554 1556 1557 1558 1560 1561 1562 1563 1564 1566 1567 1568 1570 1571 1572 1573 1574 1574 1574 1575 1576 1576 1577 1577 1577 1578 1579 1580 1580 1581 1582
1536 1538 1540 1541 1543 1544 1546 1547 1549 1550 1552 1554 1555 1556 1558 1559 1561 1562 1563 1565 1566 1567 1568 1570 1571 1573 1574 1575 1575 1576 1576 1577 1578 1578 1578 1579 1579 1580 1580 1581 1582 1583 1583
1535 1538 1539 1541 1543 1544 1546 1548 1549 1551 1552 1554 1556 1557 1559 1560 1562 1563 1564 1566 1567 1568 1570 1571 1572 1574 1575 1576 1577 1577 1578 1579 1579 1580 1580 1580 1581 1581 1582 1583 1583 1584 1585
1534 1537 1539 1541 1543 1544 1546 1548 1549 1551 1553 1554 1556 1557 1559 1560 1562 1564 1565 1567 1568 1570 1571 1572 1574 1575 1576 1577 1578 1579 1579 1580 1581 1581 1581 1582 1582 1583 1583 1584 1585 1585 1586
1534 1536 1538 1541 1542 1544 1546 1547 1549 1551 1552 1554 1556 1557 1559 1560 1562 1564 1566 1568 1569 1570 1572 1573 1574 1576 1577 1578 1579 1580 1580 1581 1581 1582 1582 1583 1583 1584 1584 1585 1585 1586 1587
1533 1535 1537 1540 1541 1544 1546 1547 1549 1551 1552 1554 1555 1557 1559 1560 1562 1564 1566 1568 1570 1571 1572 1574 1575 1576 1577 1578 1579 1580 1581 1581 1582 1583 1583 1583 1584 1584 1585 1586 1586 1587 1587
1531 1534 1537 1539 1541 1543 1545 1547 1549 1550 1552 1553 1555 1556 1558 1560 1562 1564 1566 1568 1569 1571 1573 1574 1576 1577 1577 1578 1579 1580 1581 1582 1582 1583 1584 1584 1584 1584 1585 1586 1586 1587 1588
1529 1532 1535 1538 1540 1542 1544 1546 1547 1549 1551 1553 1554 1556 1558 1560 1561 1563 1565 1567 1569 1571 1573 1574 1576 1577 1578 1579 1579 1580 1581 1582 1583 1583 1584 1584 1584 1585 1585 1586 1586 1587 1588
1528 1531 1534 1537 1539 1541 1543 1544 1546 1548 1550 1551 1553 1555 1557 1559 1561 1563 1565 1567 1569 1570 1572 1574 1575 1576 1578 1578 1579 1580 1581 1582 1582 1583 1584 1584 1584 1585 1585 1586 1586 1587 1587
1527 1529 1532 1535 1537 1539 1541 1543 1544 1546 1548 1550 1552 1554 1556 1558 1560 1562 1564 1566 1568 1569 1571 1573 1574 1576 1577 1578 1579 1580 1581 1581 1582 1582 1583 1584 1584 1584 1585 1585 1586 1586 1587
1525 1528 1530 1533 1535 1538 1540 1541 1542 1544 1546 1548 1550 1552 1554 1556 1558 1561 1563 1565 1566 1568 1570 1572 1573 1575 1576 1577 1578 1579 1580 1581 1581 1582 1582 1583 1583 1584 1584 1585 1585 1586 1586
1524 1526 1527 1530 1533 1535 1537 1538 1540 1542 1544 1546 1548 1550 1552 1555 1557 1559 1561 1563 1565 1567 1568 1570 1572 1573 1575 1576 1577 1578 1579 1580 1580 1581 1581 1581 1582 1583 1583 1584 1584 1585 1585
1521 1524 1525 1527 1530 1532 1534 1537 1538 1540 1542 1544 1546 1548 1550 1553 1555 1557 1559 1561 1563 1565 1567 1568 1570 1571 1573 1574 1576 1577 1578 1579 1578 1579 1579 1580 1580 1581 1582 1582 1583 1583 1584
1519 1522 1524 1526 1527 1530 1532 1534 1537 1539 1541 1542 1544 1546 1548 1550 1553 1555 1557 1559 1561 1563 1564 1566 1568 1569 1570 1572 1574 1575 1576 1575 1576 1577 1577 1578 1578 1579 1579 1580 1581 1581 1582
1516 1519 1521 1523 1526 1527 1529 1531 1533 1535 1536 1538 1541 1543 1545 1548 1550 1552 1554 1556 1558 1560 1562 1564 1565 1567 1568 1570 1571 1573 1574 1574 1574 1574 1575 1575 1576 1576 1577 1578 1578 1579 1579
1514 1516 1519 1521 1523 1525 1527 1528 1530 1533 1535 1537 1539 1541 1543 1545 1547 1549 1551 1553 1555 1557 1559 1561 1563 1564 1566 1567 1569 1570 1571 1571 1572 1572 1572 1573 1574 1574 1575 1575 1575 1576 1577
1511 1513 1517 1519 1521 1523 1524 1526 1528 1530 1532 1534 1536 1538 1540 1542 1544 1546 1548 1550 1552 1554 1556 1558 1560 1562 1563 1565 1566 1567 1568 1569 1569 1570 1570 1570 1570 1571 1572 1572 1573 1573 1574